Hourly Data Report for October 31, 2013

All times are specified in Local Standard Time (LST). Add 1 hour to adjust for Daylight Saving Time where and when it is observed.

HALL BEACH A
NUNAVUT

68°46'33.000" N
81°14'33.000" W
9.10 m
2402354
71293
YUX

Download Data

Hourly Data (October 2013)
Hourly Data Report for October 31, 2013
Temp Definition
°C
Dew Point Temp Definition
°C
Rel Hum Definition
%
Wind Dir Definition
10's deg

Wind Spd Definition
km/h
Visibility Definition
km
Stn Press Definition
kPa
Hmdx Definition


Wind Chill Definition


Weather Definition


TIME
00:00 Legend Double Dagger -7.1 -8.6 89 7 18 16.1 101.06   -14 LegendNANA
01:00 Legend Double Dagger -7.3 -8.8 89 6 21 16.1 101.08   -15 LegendNANA
02:00 Legend Double Dagger -7.1 -8.6 89 6 21 16.1 101.08   -14 LegendNANA
03:00 Legend Double Dagger -7.8 -9.4 88 7 22 16.1 101.08   -15 LegendNANA
04:00 Legend Double Dagger -8.5 -9.8 90 6 22 16.1 101.10   -16 LegendNANA
05:00 Legend Double Dagger -7.6 -9.1 89 6 24 16.1 101.10   -16 LegendNANA
06:00 Legend Double Dagger -7.6 -9.3 88 8 24 16.1 101.12   -16 LegendNANA
07:00 Legend Double Dagger -7.7 -9.2 89 9 18 16.1 101.12   -15 LegendNANA
08:00 Legend Double Dagger -7.7 -9.1 90 8 26 16.1 101.15   -16 LegendNANA
09:00 Legend Double Dagger -8.0 -9.1 92 11 22 16.1 101.18   -16 LegendNANA
10:00 Legend Double Dagger -8.0 -9.1 92 9 21 16.1 101.19   -16 LegendNANA
11:00 Legend Double Dagger -7.8 -9.0 91 8 22 16.1 101.19   -15 LegendNANA
12:00 Legend Double Dagger -7.7 -9.1 90 9 17 16.1 101.20   -14 LegendNANA
13:00 Legend Double Dagger -7.8 -9.6 87 9 21 16.1 101.22   -15 LegendNANA
14:00 Legend Double Dagger -7.7 -9.4 88 8 21 16.1 101.24   -15 LegendNANA
15:00 Legend Double Dagger -7.7 -9.4 88 8 21 16.1 101.28   -15 LegendNANA
16:00 Legend Double Dagger -8.8 -10.3 89 7 18 16.1 101.33   -16 LegendNANA
17:00 Legend Double Dagger -8.6 -10.5 86 7 18 16.1 101.37   -16 LegendNANA
18:00 Legend Double Dagger -8.2 -9.8 88 8 22 16.1 101.40   -16 LegendNANA
19:00 Legend Double Dagger -8.5 -10.5 86 7 18 16.1 101.43   -16 LegendNANA
20:00 Legend Double Dagger -8.0 -10.4 83 6 22 16.1 101.46   -16 LegendNANA
21:00 Legend Double Dagger -7.6 -10.7 79 7 26 16.1 101.48   -16 LegendNANA
22:00 Legend Double Dagger -7.5 -10.1 82 7 18 16.1 101.49   -14 LegendNANA
23:00 Legend Double Dagger -7.7 -11.6 74 5 22 16.1 101.50   -15 LegendNANA

Notes on Data Quality.

Legend

  • E = Estimated
  • M = Missing
  • NA = Not Available
  • ‡ = Partner data that is not subject to review by the National Climate Archives
Date modified: